This demonstration page uses our WeatherBlox Daily Observations layout. Learn more.

Left ArrowRight Arrow

44.89941, -97.11507

Hourly Observations for May 9, 2022

Temp ( °F °C ) Dew Point ( °F °C ) Humidity (%) Winds ( mph kmh ) Pressure ( in mb ) Visibility ( mi km ) Precip ( " mm )
12:53 am 00:53 Mostly Cloudy 55 12.8 51 10.6 87 87 ESE 12 19 29.55 1001 10 16 0.00 0.00
1:17 am 01:17 Cloudy 55 12.8 51 10.6 87 87 ESE 12 19 29.55 1001 10 16 0.00 0.00
1:32 am 01:32 Cloudy 55 12.8 52 11.1 90 90 ESE 13 20 29.52 1000 8 13 0.00 0.00
1:53 am 01:53 Cloudy with Mist and Fog 54 12.2 52 11.1 93 93 E 9 15 29.51 999 6 10 0.00 0.00
2:26 am 02:26 Cloudy with Mist and Fog 54 12.2 52 11.1 93 93 E 10 17 29.49 998 5 8 0.00 0.00
2:42 am 02:42 Cloudy with Mist and Fog 53 11.7 52 11.1 96 96 E 13 20 29.46 998 2 3 0.00 0.00
2:49 am 02:49 Cloudy with Mist and Fog 54 12 54 12 100 100 E 13 20 29.46 998 2 3 0.00 0.00
2:53 am 02:53 Cloudy with Mist and Fog 53 11.7 53 11.7 100 100 E 12 19 29.45 997 2 3 0.00 0.00
3:13 am 03:13 Cloudy with Mist and Fog 53 11.7 53 11.7 100 100 E 10 17 29.43 997 1 2 0.00 0.00
3:34 am 03:34 Cloudy with Mist and Fog 53 11.7 52 11.1 96 96 ESE 12 19 29.43 997 1 1 0.00 0.00
3:53 am 03:53 Cloudy with Mist and Fog 52 11.1 52 11.1 100 100 E 13 20 29.40 996 1 1 0.00 0.00
4:09 am 04:09 Cloudy with Mist and Fog 52 11.1 52 11.1 100 100 ESE 14 22 29.39 995 1 2 0.00 0.00
4:15 am 04:15 Cloudy with Mist and Fog 52 11.1 52 11.1 100 100 E 15 24 29.38 995 2 3 0.00 0.00
4:25 am 04:25 Cloudy with Nearby Thunderstorms 52 11.1 52 11.1 100 100 E 16 26 29.35 994 3 5 0.00 0.00
4:47 am 04:47 Cloudy with Thunderstorms 54 12 52 11 94 94 ESE 17 28 29.34 993 6 10 0.00 0.00
4:53 am 04:53 Cloudy with Thunderstorms 53 11.7 52 11.1 96 96 ESE 15 24 29.34 993 5 8 0.01 0.25
5:07 am 05:07 Cloudy with Thunderstorms 53 11.7 52 11.1 96 96 ESE 16 26 29.34 994 3 4 0.00 0.00
5:12 am 05:12 Cloudy with Nearby Thunderstorms 53 11.7 52 11.1 96 96 ESE 16 26 29.33 993 3 5 0.01 0.25
5:23 am 05:23 Cloudy with Light Rain 53 11.7 52 11.1 96 96 ESE 16 26 29.32 993 6 10 0.01 0.25
5:41 am 05:41 Cloudy with Light Rain 54 12.2 52 11.1 93 93 E 16 26 29.27 991 9 14 0.01 0.25
5:53 am 05:53 Cloudy 54 12.2 52 11.1 93 93 ESE 14 22 29.23 990 9 14 0.01 0.25
6:28 am 06:28 Cloudy with Nearby Thunderstorms 54 12.2 52 11.1 93 93 ESE 16 26 29.23 990 10 16 0.00 0.00
6:37 am 06:37 Cloudy with Thunderstorms 54 12.2 52 11.1 93 93 ESE 15 24 29.21 989 5 8 0.03 0.76
6:53 am 06:53 Cloudy with Thunderstorms 54 12.2 52 11.1 93 93 ESE 16 26 29.22 989 5 8 0.11 2.79
7:07 am 07:07 Cloudy with Nearby Thunderstorms 54 12.2 52 11.1 93 93 SE 21 33 29.23 990 10 16 0.00 0.00
7:14 am 07:14 Cloudy 55 12.8 53 11.7 93 93 SE 17 28 29.22 990 10 16 0.00 0.00
7:28 am 07:28 Cloudy 56 13.3 53 11.7 90 90 SE 17 28 29.22 989 10 16 0.00 0.00
7:53 am 07:53 Cloudy 56 13.3 54 12.2 93 93 SE 13 20 29.21 989 10 16 0.00 0.00
8:53 am 08:53 Cloudy 60 15.6 58 14.4 93 93 SSE 16 26 29.19 989 9 14 0.00 0.00
9:53 am 09:53 Cloudy 63 17.2 60 15.6 90 90 SSE 21 33 29.18 988 7 11 0.00 0.00
10:53 am 10:53 Cloudy 66 18.9 63 17.2 90 90 S 15 24 29.21 989 7 11 0.00 0.00
11:18 am 11:18 Cloudy 69 20.6 64 17.8 84 84 WSW 28 44 29.18 988 7 11 0.00 0.00
11:33 am 11:33 Cloudy 66 18.9 63 17.2 90 90 WSW 24 39 29.20 989 7 11 0.00 0.00
11:53 am 11:53 Cloudy 67 19.4 62 16.7 84 84 WSW 24 39 29.23 990 10 16 0.00 0.00
12:13 pm 12:13 Cloudy 67 19.4 61 16.1 81 81 SW 25 41 29.22 989 10 16 0.00 0.00
12:53 pm 12:53 Cloudy 68 20 60 15.6 76 76 SW 22 35 29.29 992 10 16 0.00 0.00
1:53 pm 13:53 Cloudy 65 18.3 56 13.3 73 73 WSW 22 35 29.35 994 10 16 0.00 0.00
2:53 pm 14:53 Mostly Cloudy 69 20.6 56 13.3 63 63 WSW 21 33 29.38 995 10 16 0.00 0.00
3:48 pm 15:48 Cloudy 70 21 55 13 60 60 WSW 23 37 29.39 995 10 16 0.00 0.00
3:53 pm 15:53 Cloudy 69 20.6 56 13.3 63 63 WSW 24 39 29.44 997 10 16 0.00 0.00
4:53 pm 16:53 Partly Cloudy 70 21.1 52 11.1 53 53 WSW 29 46 29.48 998 10 16 0.00 0.00
5:53 pm 17:53 Mostly Cloudy 68 20 49 9.4 51 51 WSW 26 43 29.54 1000 10 16 0.00 0.00
6:53 pm 18:53 Sunny 64 17.8 46 7.8 52 52 WSW 26 43 29.60 1002 10 16 0.00 0.00
7:53 pm 19:53 Sunny 61 16.1 46 7.8 58 58 W 15 24 29.65 1004 10 16 0.00 0.00
8:53 pm 20:53 Clear 57 13.9 45 7.2 64 64 W 13 20 29.69 1005 10 16 0.00 0.00
9:53 pm 21:53 Clear 54 12.2 45 7.2 72 72 W 13 20 29.74 1007 10 16 0.00 0.00
10:53 pm 22:53 Clear 53 11.7 45 7.2 74 74 W 7 11 29.75 1007 10 16 0.00 0.00
11:53 pm 23:53 Clear 51 10.6 45 7.2 80 80 WNW 7 11 29.77 1008 10 16 0.00 0.00

Powered by AerisWeather